TimePST,TemperatureF,Dew PointF,Humidity,Sea Level PressureIn,VisibilityMPH,Wind Direction,Wind SpeedMPH,Gust SpeedMPH,PrecipitationIn,Events,Conditions,WindDirDegrees,DateUTC
12:53 AM,39.9,39.0,97,30.06,10.0,Calm,Calm,-,N/A,,Clear,0,2012-12-08 08:53:00
1:53 AM,39.0,37.0,93,30.06,10.0,Calm,Calm,-,N/A,,Clear,0,2012-12-08 09:53:00
2:53 AM,37.0,36.0,96,30.05,10.0,Calm,Calm,-,N/A,,Clear,0,2012-12-08 10:53:00
3:53 AM,36.0,34.0,93,30.05,8.0,Calm,Calm,-,N/A,,Clear,0,2012-12-08 11:53:00
4:53 AM,35.1,35.1,100,30.05,2.5,Calm,Calm,-,N/A,,Clear,0,2012-12-08 12:53:00
5:02 AM,35.6,33.8,93,30.04,5.0,Calm,Calm,-,N/A,,Clear,0,2012-12-08 13:02:00
5:53 AM,36.0,35.1,97,30.06,9.0,Calm,Calm,-,N/A,,Clear,0,2012-12-08 13:53:00
6:53 AM,35.1,34.0,96,30.06,6.0,East,4.6,-,0.01,,Clear,80,2012-12-08 14:53:00
7:53 AM,37.0,35.1,93,30.06,5.0,Calm,Calm,-,N/A,,Clear,0,2012-12-08 15:53:00
8:53 AM,42.1,39.0,89,30.07,10.0,Calm,Calm,-,N/A,,Clear,0,2012-12-08 16:53:00
9:53 AM,46.0,42.1,86,30.08,10.0,Calm,Calm,-,N/A,,Clear,0,2012-12-08 17:53:00
10:53 AM,53.1,45.0,74,30.05,10.0,NW,3.5,-,N/A,,Clear,320,2012-12-08 18:53:00
11:53 AM,57.9,46.9,67,30.02,10.0,Calm,Calm,-,N/A,,Clear,0,2012-12-08 19:53:00
12:53 PM,63.0,46.0,54,30.00,10.0,ESE,9.2,-,N/A,,Clear,110,2012-12-08 20:53:00
1:53 PM,64.0,46.0,52,29.98,10.0,East,9.2,-,N/A,,Clear,80,2012-12-08 21:53:00
2:53 PM,62.1,46.0,56,29.98,10.0,East,10.4,-,N/A,,Clear,90,2012-12-08 22:53:00
3:53 PM,60.1,45.0,57,29.98,10.0,East,11.5,-,N/A,,Clear,100,2012-12-08 23:53:00
4:53 PM,55.9,46.0,69,29.99,10.0,East,8.1,-,N/A,,Clear,100,2012-12-09 00:53:00
5:53 PM,54.0,45.0,72,30.01,10.0,East,8.1,-,N/A,,Clear,90,2012-12-09 01:53:00
6:53 PM,52.0,45.0,77,30.01,10.0,East,10.4,-,N/A,,Clear,100,2012-12-09 02:53:00
7:53 PM,50.0,45.0,83,30.04,10.0,East,8.1,-,N/A,,Clear,80,2012-12-09 03:53:00
8:53 PM,48.9,44.1,83,30.05,8.0,East,8.1,-,N/A,,Clear,100,2012-12-09 04:53:00
9:53 PM,46.0,43.0,89,30.06,7.0,East,5.8,-,N/A,,Clear,90,2012-12-09 05:53:00
10:53 PM,45.0,41.0,86,30.06,10.0,Calm,Calm,-,N/A,,Clear,0,2012-12-09 06:53:00
11:53 PM,42.1,39.0,89,30.06,7.0,Calm,Calm,-,N/A,,Clear,0,2012-12-09 07:53:00